Location: Burbank
(38.7788°N, 114.0429°W)
Time: 11:43:08
(UTC+00:00)

Transit 2A - Visible Passes

Search period start: 15 May 2026 00:00
Search period end: 25 May 2026 00:00
Orbit: 594 x 950 km, 66.7° (Epoch: 14 May)

Date Brightness Start Highest point End Pass type
(mag) Time Alt. Az. Time Alt. Az. Time Alt. Az.
15 May 7.6 07:23:49 10° N 07:27:36 24° NE 07:27:36 24° NE visible
15 May 7.8 09:06:36 10° NW 09:07:53 17° NW 09:07:53 17° NW visible
16 May 8.0 06:47:59 10° N 06:51:07 17° NE 06:51:42 16° NE visible
16 May 7.5 08:29:54 10° NW 08:32:00 25° NW 08:32:00 25° NW visible
17 May 8.4 06:12:43 10° NNE 06:14:19 11° NE 06:15:51 10° ENE visible
17 May 7.2 07:53:25 10° NNW 07:56:09 33° NNW 07:56:09 33° NNW visible
18 May 7.1 07:17:05 10° NNW 07:20:21 36° N 07:20:21 36° N visible
19 May 7.2 06:40:54 10° N 06:44:36 30° NE 06:44:36 30° NE visible
19 May 8.2 08:24:13 10° NW 08:24:54 13° WNW 08:24:54 13° WNW visible
20 May 7.6 06:04:53 10° N 06:08:35 21° NE 06:08:53 21° NE visible
20 May 7.7 07:47:21 10° NW 07:49:11 21° NW 07:49:11 21° NW visible
21 May 8.0 05:29:10 10° N 05:31:50 14° NE 05:33:12 13° ENE visible
21 May 7.1 07:10:44 10° NNW 07:13:30 34° NW 07:13:30 34° NW visible
22 May 6.6 06:34:18 10° NNW 06:37:51 47° N 06:37:51 47° N visible
23 May 6.5 05:58:01 10° NNW 06:02:14 41° NE 06:02:14 41° NE visible
23 May 8.3 07:42:03 10° WNW 07:42:33 12° WNW 07:42:33 12° WNW visible
24 May 7.0 05:21:53 10° N 05:25:59 27° NE 05:26:39 26° ENE visible
24 May 7.6 07:04:54 10° NW 07:06:58 21° WNW 07:06:58 21° WNW visible
